V.C. Bird, Antigua

8:11 AM AST on May 27, 2018 (GMT -0400)
V C Bird International

Weather History for TAPA - March, 2012

Change the Weather History Date:

Sunday, March 18, 2012

  Actual Average Record
Temperature  
Mean Temperature 78 °F -  
Max Temperature 82 °F 82 °F 86 °F (1998)
Min Temperature 74 °F 73 °F 69 °F (2011)
Cooling Degree Days 13    
Growing Degree Days 28 (Base 50)    
Moisture  
Dew Point 67 °F    
Average Humidity 68    
Maximum Humidity 78    
Minimum Humidity 50    
Precipitation  
Precipitation 0.00 in - - ()
Sea Level Pressure  
Sea Level Pressure 29.99 in    
Wind  
Wind Speed 10 mph ()    
Max Wind Speed 14 mph    
Max Gust Speed -    
Visibility 8.5 miles    
Events      
Averages and records for this station are not official NWS values.
T = Trace of Precipitation, MM = Missing Value Source: Averaged Metar Reports

Daily Weather History Graph

Daily Weather History Graph

Search for Another Location

Airport or City:

Astronomy

Mar. 18, 2012 Rise Set
Actual Time 6:12 AM AST 6:17 PM AST
Civil Twilight 5:50 AM AST 6:39 PM AST
Nautical Twilight 5:25 AM AST 7:04 PM AST
Astronomical Twilight 5:00 AM AST 7:29 PM AST
Moon 3:17 AM AST (3/18) 3:07 PM AST (3/18)
Length of Visible Light 12h 48m
Length of Day
12h 05m
Waning Crescent, 15% of the Moon is Illuminated
Mar 18
Waning Crescent
Mar 22
New
Mar 30
First Quarter
Apr 6
Full
Apr 13
Last Quarter

Hourly Weather History & Observations

Time (AST) Temp. Heat Index Dew Point Humidity Pressure Visibility Wind Dir Wind Speed Gust Speed Precip Events Conditions
12:00 AM 77.0 °F - 68.0 °F 74% 30.04 in 6.2 mi East 12.7 mph - N/A   Partly Cloudy
1:00 AM 77.0 °F - 68.0 °F 74% 30.01 in 6.2 mi East 12.7 mph - N/A   Partly Cloudy
2:00 AM 76 °F - 68 °F 69% 30.00 in 15 mi East 11.5 mph - -   Haze
2:00 AM 75.2 °F - 68.0 °F 78% 29.98 in 6.2 mi East 11.5 mph - N/A   Partly Cloudy
3:00 AM 75.2 °F - 68.0 °F 78% 29.98 in 6.2 mi ESE 10.4 mph - N/A   Mostly Cloudy
4:00 AM 75.2 °F - 66.2 °F 73% 29.98 in 6.2 mi East 11.5 mph - N/A   Mostly Cloudy
4:59 AM - - - N/A% - - North - - N/A   Unknown
5:00 AM 75.2 °F - 66.2 °F 73% 29.98 in 6.2 mi East 12.7 mph - N/A   Mostly Cloudy
6:00 AM 75.2 °F - 66.2 °F 73% 29.98 in 6.2 mi East 10.4 mph - N/A   Mostly Cloudy
7:00 AM 75.2 °F - 66.2 °F 73% 30.01 in 6.2 mi East 10.4 mph - N/A   Mostly Cloudy
8:00 AM 77 °F - 66 °F 61% 30.02 in 17 mi East 11.5 mph - -   Haze
8:00 AM 77.0 °F - 66.2 °F 69% 30.01 in 6.2 mi East 11.5 mph - N/A   Mostly Cloudy
8:02 AM - - - N/A% - - North - - N/A   Unknown
9:00 AM 78.8 °F - 68.0 °F 69% 30.04 in 6.2 mi East 13.8 mph - N/A   Mostly Cloudy
10:00 AM 80.6 °F 83.2 °F 68.0 °F 65% 30.04 in 6.2 mi East 12.7 mph - N/A   Mostly Cloudy
11:00 AM 81 °F - 68 °F 56% 30.04 in 17 mi East 13.8 mph - -   Haze
11:00 AM 80.6 °F 83.2 °F 68.0 °F 65% 30.04 in 6.2 mi East 13.8 mph - N/A   Mostly Cloudy
12:00 PM 80.6 °F 83.2 °F 68.0 °F 65% 30.01 in 6.2 mi East 13.8 mph - N/A   Mostly Cloudy
1:00 PM 82.4 °F 85.4 °F 68.0 °F 62% 30.01 in 6.2 mi East 12.7 mph - N/A   Scattered Clouds
2:00 PM 81 °F - 65 °F 50% 29.99 in 16 mi East 12.7 mph - -   Haze
2:00 PM 80.6 °F 82.7 °F 66.2 °F 61% 29.98 in 6.2 mi East 12.7 mph - N/A   Scattered Clouds
3:00 PM 80.6 °F 82.7 °F 66.2 °F 61% 29.95 in 6.2 mi East 12.7 mph - N/A   Mostly Cloudy
4:00 PM 80.6 °F 82.3 °F 64.4 °F 58% 29.95 in 6.2 mi East 10.4 mph - N/A   Mostly Cloudy
5:00 PM 78 °F - 67 °F 60% 29.96 in 16 mi East 10.4 mph - -   Haze
5:00 PM 78.8 °F - 66.2 °F 65% 29.95 in 6.2 mi East 10.4 mph - N/A   Mostly Cloudy
6:00 PM 77.0 °F - 68.0 °F 74% 29.95 in 6.2 mi East 9.2 mph - N/A   Mostly Cloudy
8:00 PM 76 °F - 65 °F 62% 29.99 in 16 mi East 9.2 mph - -   Haze
8:00 PM 75.2 °F - 66.2 °F 73% 29.98 in 6.2 mi East 9.2 mph - N/A   Mostly Cloudy
9:00 PM 75.2 °F - 66.2 °F 73% 29.98 in 6.2 mi East 9.2 mph - N/A   Mostly Cloudy
10:00 PM 75.2 °F - 66.2 °F 73% 29.98 in 6.2 mi East 8.1 mph - N/A   Mostly Cloudy
11:00 PM 75 °F - 66 °F 68% 29.99 in 16 mi 2.3 mph - -   Haze
11:00 PM 75.2 °F - 66.2 °F 73% 29.98 in 6.2 mi Variable 2.3 mph - N/A   Partly Cloudy